BULGARIASAT-1

Last updated on Sun Oct 06 2024 00:02:41 GMT+0000 (Coordinated Universal Time)

1 42801U 17038A 24278.68322394 .00000020 00000+0 00000+0 0 9994 2 42801 0.0586 92.2454 0002792 109.2787 60.2263 1.00273453 26615
UTC large
Height (km)
Speed (km/s)
/
Latitude / Longitude
Inclination (degrees)
Orbital Period (minutes)
Azimuth
Elevation
Range (km)
Doppler Factor

Next 0 passes for location: London (51.5072 / 0.1276)

Sorry there are no passes over London.